SCP
0 0 0 0 0 0 0 0 0 0 0 0 0 0 0 0 0 0 0 0 0 0 1 1 0 0 1 1 1 0 0 0 1 0 0 0 0 0 0 0 0 0 0
0 0 0 0 0 0 0 0 0 0 0 0 0 0 0 0 0 0 0 0 0 0 1 1 1 0 1 1 1 1 1 1 1 1 1 0 0 0 0 0 0 0 0
0 0 0 0 0 0 0 0 0 0 0 0 0 0 0 0 0 0 0 0 0 0 1 1 1 0 1 1 1 1 1 1 1 1 1 1 0 0 0 0 0 0 0
0 0 0 0 0 0 0 0 0 0 0 0 0 0 0 0 0 0 0 0 0 0 1 0 1 1 1 1 1 1 2 2 1 1 1 1 0 0 0 0 0 0 0
0 0 0 1 1 1 0 0 0 0 0 0 0 0 0 0 0 0 0 0 0 0 0 0 0 1 1 1 2 2 1 1 1 1 1 1 1 1 0 0 0 0 0
0 0 0 0 0 0 1 0 0 1 1 1 2 1 0 0 0 0 0 0 0 1 1 0 0 1 1 2 2 0 1 1 2 1 1 1 1 1 0 0 0 0 0
0 0 0 0 0 0 0 0 0 0 0 0 0 0 0 0 1 0 1 0 0 0 0 0 1 1 1 1 0 0 1 1 1 1 1 1 1 1 1 0 0 0 0
0 0 0 0 0 0 0 0 0 0 0 0 1 0 0 0 0 0 0 0 0 0 0 0 0 0 0 1 1 0 1 1 2 1 1 1 1 1 1 0 0 0 0
0 0 0 0 0 0 0 0 0 0 0 0 1 1 0 0 -0 0 0 0 0 0 0 0 0 0 0 0 0 1 2 2 1 1 1 0 1 1 1 0 0 0 0
0 0 0 0 0 0 0 0 0 0 0 0 0 0 0 -0 -0 -0 -0 -0 0 0 0 0 0 0 0 0 0 1 0 1 0 0 1 1 1 0 0 1 0 0 0
0 0 0 0 0 0 0 0 1 1 1 0 0 0 0 0 0 0 0 0 0 0 0 0 0 0 0 0 0 0 0 0 1 1 1 1 1 0 0 1 0 0 0
0 0 0 0 0 0 0 0 0 -0 -0 -0 0 0 0 0 0 0 0 0 0 0 0 0 0 0 0 0 0 0 0 0 0 0 0 0 0 0 0 0 0 0 0
0 0 0 0 0 1 0 0 0 -0 -0 -0 0 0 0 0 0 0 0 0 0 0 0 0 0 0 0 0 0 0 0 0 0 0 0 0 0 0 0 0 0 0 0
1 0 0 1 1 0 0 0 -0 -0 -0 0 0 0 0 0 0 0 0 0 0 0 0 0 0 0 0 0 0 0 0 0 0 0 0 0 -0 0 0 0 0 0 0
0 0 1 1 0 0 0 0 -0 0 0 0 0 0 0 0 0 0 0 0 0 0 0 0 0 0 0 0 0 0 0 0 0 0 0 0 0 0 0 0 0 0 0
0 0 0 0 -0 -0 0 0 0 0 0 0 0 0 0 0 0 0 0 0 0 0 0 0 0 0 0 0 0 0 0 0 0 0 0 0 0 0 0 0 0 0 0
0 0 0 0 -0 0 0 0 0 0 0 0 0 0 0 0 0 0 0 0 0 0 0 0 0 0 0 0 0 0 0 0 0 0 0 0 0 0 0 -0 -0 0 0
0 0 0 0 0 0 0 0 0 1 0 0 0 0 0 0 0 0 0 0 0 0 0 0 0 0 0 0 0 0 0 0 0 0 0 0 0 0 -0 0 0 0 0
0 0 0 0 0 0 0 0 0 0 0 0 0 0 0 0 0 0 0 0 0 0 0 0 0 0 0 0 0 0 0 0 0 0 0 0 0 0 0 0 0 0 0
0 0 0 0 0 0 0 0 0 0 0 0 0 0 0 0 0 0 0 0 0 0 0 0 0 0 0 0 0 0 0 0 0 0 -0 -0 -0 -0 -0 -0 0 0 0
0 0 0 0 0 0 0 0 0 0 0 0 0 0 0 0 0 0 0 0 0 0 0 0 0 0 0 0 0 0 0 0 0 0 0 0 0 -0 -0 -0 0 0 0
0 0 0 0 0 0 0 0 0 0 0 0 0 0 0 0 0 0 0 0 0 0 0 0 0 0 0 0 0 0 0 0 0 0 0 0 0 0 -0 0 0 0 0
0 0 0 0 0 0 0 0 0 0 0 0 0 0 0 0 0 0 0 0 0 0 0 0 0 0 0 0 0 0 0 0 0 0 0 0 0 0 0 0 0 0 0
0 0 0 0 0 0 0 0 0 0 0 0 0 0 0 0 0 0 0 0 0 0 0 0 0 0 0 0 0 0 0 0 0 0 0 0 0 0 0 0 0 0 0
0 0 0 0 0 0 0 0 0 0 0 0 0 0 0 0 0 0 0 0 0 0 0 0 0 0 0 0 0 0 0 0 0 0 0 0 0 0 0 0 0 0 0
0 0 0 0 0 0 0 0 0 0 0 0 0 0 0 0 0 0 0 0 0 0 0 0 0 0 0 0 0 0 0 0 0 0 0 0 0 0 0 0 0 0 0
Wind_Speed_500mb
43 33 29 35 30 29 36 37 33 28 20 22 30 23 31 31 33 37 40 38 40 41 40 40 40 37 40 39 38 38 37 35 32 35 34 31 29 26 26 27 27 24 24
43 32 35 34 30 27 23 25 22 29 28 25 22 32 31 31 31 32 34 39 44 41 43 42 42 43 42 40 40 40 41 36 36 38 38 40 37 35 31 31 31 30 28
47 33 37 42 43 40 30 29 32 22 27 33 39 35 31 31 33 28 27 27 33 37 41 43 42 49 49 46 43 42 44 41 41 42 41 42 44 45 40 39 37 36 34
29 52 36 37 37 35 45 32 25 33 39 43 40 29 21 23 26 32 36 34 35 40 41 40 44 49 45 41 43 46 42 42 44 47 46 44 45 48 48 45 45 43 42
53 50 47 45 39 37 40 39 42 40 47 47 36 36 27 31 30 36 43 46 40 38 42 44 40 39 48 49 49 51 42 40 47 45 47 47 49 52 53 52 49 49 49
62 57 59 57 57 37 46 44 31 41 38 40 37 24 30 39 37 41 39 39 42 39 41 43 42 44 51 54 55 48 48 43 39 42 46 43 47 53 59 58 56 53 51
43 40 62 57 52 57 62 32 40 37 44 46 35 39 38 34 36 33 35 37 38 38 36 37 37 43 46 41 44 41 39 44 51 59 46 48 52 45 54 55 58 54 55
41 52 33 61 63 53 51 53 64 38 49 37 23 18 24 26 30 31 25 23 19 25 35 41 49 48 41 34 36 36 46 49 51 53 41 34 49 50 42 40 48 52 56
66 69 74 85 80 78 65 51 55 56 41 35 34 14 5 20 44 37 36 35 32 27 37 42 39 35 36 41 44 39 41 41 59 62 32 33 37 42 47 50 61 59 58
55 59 41 50 65 73 73 54 58 57 47 49 39 38 37 41 46 49 50 43 37 40 29 34 31 26 35 28 20 26 28 25 31 27 32 32 31 33 35 43 64 61 62
51 50 44 44 47 51 58 59 52 50 50 53 48 50 50 60 55 49 52 52 45 39 35 25 32 28 34 41 43 42 37 35 30 25 27 31 40 35 41 42 55 60 53
52 54 61 59 56 64 65 47 40 52 47 53 57 58 65 60 47 41 39 62 63 55 46 36 40 48 53 58 56 58 47 40 34 26 26 28 32 39 39 45 54 64 63
64 55 58 75 73 65 46 25 34 53 41 57 60 65 59 54 50 51 51 52 57 55 53 51 44 38 35 41 49 39 42 41 28 28 31 37 44 51 53 58 62 57 61
53 53 61 67 83 80 56 40 34 38 50 60 61 59 58 50 51 50 47 43 51 53 53 53 46 39 47 44 34 38 35 42 44 49 52 57 60 64 65 64 54 54 56
52 56 59 59 64 64 58 50 47 50 66 58 55 57 57 48 47 40 37 35 40 53 62 59 53 42 39 37 40 34 32 32 38 53 61 54 50 52 47 48 52 54 53
55 56 53 39 40 38 47 44 48 51 46 47 49 50 48 50 47 43 42 42 48 56 67 56 59 55 42 44 45 54 62 68 66 51 41 49 42 46 51 55 53 54 47
44 44 27 50 54 38 36 37 38 37 39 41 44 50 53 55 54 50 50 54 58 61 73 76 72 63 65 58 51 53 52 44 45 54 53 53 49 52 60 61 63 57 52
7 4 20 19 14 17 21 31 34 36 44 46 49 55 59 60 66 62 62 64 66 67 74 85 82 74 65 48 44 58 68 66 60 45 49 34 47 57 56 50 53 59 53
3 3 5 3 1 10 19 29 38 46 50 56 62 65 68 69 73 75 74 76 75 75 77 86 90 85 74 79 79 72 57 44 48 43 35 46 48 42 48 52 52 53 59
9 15 18 22 28 36 37 38 39 42 44 48 53 55 61 64 67 73 78 83 84 82 86 93 92 91 90 83 66 54 53 59 54 57 67 76 79 74 74 70 58 54 51
21 24 26 27 31 36 41 48 57 63 66 72 76 74 72 69 63 59 57 63 63 70 79 85 87 83 79 71 64 62 65 63 73 85 78 76 72 74 64 58 63 55 49
32 35 38 42 46 48 52 56 61 68 75 83 89 93 95 94 95 95 93 91 80 69 70 69 83 83 81 77 70 67 76 86 87 85 72 63 65 72 67 55 56 51 49
47 50 53 56 58 60 60 63 66 68 72 76 81 86 88 89 89 89 92 95 96 96 89 84 80 77 69 66 69 73 78 77 75 72 63 71 75 71 59 59 51 46 46
56 59 61 61 60 58 54 51 58 66 71 74 77 81 82 82 82 83 85 88 89 86 84 84 85 95 89 78 77 77 65 79 73 65 65 66 77 71 57 53 48 45 47
60 58 54 54 55 59 62 66 72 78 81 84 83 81 77 79 78 73 68 72 78 80 79 84 85 88 88 79 76 62 62 64 65 67 66 61 78 69 59 55 48 46 45
52 58 65 69 73 70 59 57 56 59 64 64 61 61 59 59 57 57 57 61 59 52 54 57 63 65 59 66 67 71 80 75 65 66 70 53 71 50 56 51 49 46 37
Wind_Direction_500mb
228 217 231 234 240 252 246 247 244 239 227 224 223 242 250 248 245 239 244 248 254 263 273 281 286 294 286 277 275 273 274 272 268 268 269 264 265 262 263 264 265 262 259
214 211 234 240 241 252 264 252 248 243 238 240 245 253 242 243 253 257 253 252 256 259 272 280 288 295 298 296 286 281 276 272 271 269 269 270 267 265 263 263 266 265 261
215 202 225 236 245 253 256 254 255 250 250 250 256 259 256 260 273 276 284 277 275 277 286 281 287 294 292 293 305 305 295 284 281 277 272 272 272 269 267 266 265 266 263
230 215 214 235 236 239 247 254 236 236 233 241 260 266 263 266 271 278 281 282 280 287 295 296 293 285 290 292 297 298 296 295 288 282 276 274 273 271 269 265 266 265 264
217 218 216 215 218 228 243 246 259 261 258 257 262 267 269 270 264 272 279 277 280 278 282 287 290 291 292 296 299 294 291 296 293 286 278 274 274 276 273 270 265 265 262
219 219 219 215 217 226 229 225 229 246 239 246 243 238 248 258 265 267 273 286 285 287 285 294 296 289 294 290 277 283 278 281 287 290 280 275 273 271 274 276 269 265 265
219 224 232 224 227 225 218 247 221 239 249 283 274 255 267 271 300 278 272 281 277 270 268 278 297 296 305 301 302 286 282 284 288 288 278 280 278 269 273 273 269 264 265
259 244 264 223 235 246 249 228 218 235 244 252 268 280 307 278 319 273 270 254 295 280 281 271 281 280 284 293 303 296 293 290 288 280 276 286 276 273 270 270 268 267 266
279 265 265 259 246 225 232 220 205 228 261 244 255 252 283 245 276 280 276 262 284 289 287 284 281 295 296 292 289 294 297 284 295 281 292 300 292 285 277 269 268 263 266
236 248 258 253 248 239 223 226 230 236 236 230 240 251 236 246 263 274 270 273 291 305 308 307 294 296 295 294 299 306 318 298 308 299 293 276 283 289 302 280 276 268 265
238 248 254 235 230 217 227 237 239 233 239 251 240 237 229 234 246 253 269 279 285 296 290 300 284 282 277 289 300 300 303 310 307 296 286 293 295 295 297 291 276 271 263
252 252 246 238 234 231 235 237 233 239 238 246 251 244 236 228 235 233 247 273 284 291 287 277 273 281 285 289 296 304 294 292 304 304 295 286 286 290 288 295 288 267 259
250 258 261 250 235 227 222 257 261 231 237 234 235 235 239 243 249 256 262 267 276 285 290 289 293 297 283 293 303 312 307 299 294 297 297 294 291 290 292 289 296 282 272
260 264 264 261 242 232 218 202 193 199 228 230 234 241 248 252 251 256 265 276 285 289 290 291 289 281 289 299 303 310 301 293 298 290 296 298 293 293 291 289 286 285 276
254 254 286 265 238 225 228 217 226 225 219 228 241 244 249 255 263 267 269 276 280 284 286 293 297 296 301 290 289 287 279 291 296 296 299 292 298 291 289 286 285 289 282
256 261 280 292 274 227 222 227 223 218 233 242 246 253 262 271 272 268 274 280 271 275 281 286 287 293 282 271 277 278 283 286 295 291 295 305 295 296 294 287 282 284 282
287 289 273 231 223 233 219 222 234 237 238 249 260 263 268 270 276 284 286 284 283 277 279 285 287 289 283 282 286 296 294 289 290 296 301 297 293 297 300 287 277 283 269
88 214 231 215 222 218 231 241 250 254 253 260 269 272 276 275 273 277 276 278 279 279 278 282 286 285 290 282 279 293 297 291 284 287 296 293 290 286 286 290 281 274 271
25 207 170 172 246 259 258 264 269 267 268 266 268 267 270 268 271 272 273 272 274 274 276 276 278 279 281 279 285 291 294 281 280 291 294 287 284 289 286 288 284 278 270
268 269 275 266 257 252 253 256 264 269 270 267 267 265 268 271 275 275 273 274 275 275 277 272 272 275 275 278 282 275 272 268 281 296 291 289 289 287 289 288 289 278 278
297 293 292 283 273 268 267 267 265 264 265 264 265 269 270 269 265 262 267 269 273 274 272 273 273 274 272 272 269 277 264 274 283 291 296 301 290 281 278 277 278 271 274
299 298 296 294 292 291 288 282 277 273 271 274 277 277 277 278 277 276 274 274 275 275 274 274 275 274 272 271 270 267 268 276 280 285 293 295 300 293 272 276 274 271 265
301 299 299 299 299 297 295 293 293 290 287 286 286 286 286 284 285 285 284 281 277 271 266 273 273 270 273 270 272 273 272 272 273 283 287 288 303 296 276 271 271 276 254
300 301 301 301 299 298 296 293 289 287 287 287 287 286 285 285 284 284 285 282 280 278 276 273 273 273 273 275 273 276 279 273 265 274 279 287 301 294 282 270 272 268 251
299 299 301 303 302 299 297 294 290 288 288 288 288 290 292 289 287 287 283 279 277 275 275 275 276 276 272 271 263 274 260 266 262 269 273 284 298 292 287 277 278 254 248
297 297 297 298 298 299 299 301 299 296 295 301 301 298 295 294 293 288 280 283 287 285 286 284 283 282 288 274 263 256 255 253 258 270 267 277 295 296 294 293 284 254 250
Wind_Speed_850mb
43 33 29 35 30 29 36 37 33 28 20 22 30 23 31 31 33 37 40 38 40 41 40 40 40 37 40 39 38 38 37 35 32 35 34 31 29 26 26 27 27 24 24
43 32 35 34 30 27 23 25 22 29 28 25 22 32 31 31 31 32 34 39 44 41 43 42 42 43 42 40 40 40 41 36 36 38 38 40 37 35 31 31 31 30 28
47 33 37 42 43 40 30 29 32 22 27 33 39 35 31 31 33 28 27 27 33 37 41 43 42 49 49 46 43 42 44 41 41 42 41 42 44 45 40 39 37 36 34
29 52 36 37 37 35 45 32 25 33 39 43 40 29 21 23 26 32 36 34 35 40 41 40 44 49 45 41 43 46 42 42 44 47 46 44 45 48 48 45 45 43 42
53 50 47 45 39 37 40 39 42 40 47 47 36 36 27 31 30 36 43 46 40 38 42 44 40 39 48 49 49 51 42 40 47 45 47 47 49 52 53 52 49 49 49
62 57 59 57 57 37 46 44 31 41 38 40 37 24 30 39 37 41 39 39 42 39 41 43 42 44 51 54 55 48 48 43 39 42 46 43 47 53 59 58 56 53 51
43 40 62 57 52 57 62 32 40 37 44 46 35 39 38 34 36 33 35 37 38 38 36 37 37 43 46 41 44 41 39 44 51 59 46 48 52 45 54 55 58 54 55
41 52 33 61 63 53 51 53 64 38 49 37 23 18 24 26 30 31 25 23 19 25 35 41 49 48 41 34 36 36 46 49 51 53 41 34 49 50 42 40 48 52 56
66 69 74 85 80 78 65 51 55 56 41 35 34 14 5 20 44 37 36 35 32 27 37 42 39 35 36 41 44 39 41 41 59 62 32 33 37 42 47 50 61 59 58
55 59 41 50 65 73 73 54 58 57 47 49 39 38 37 41 46 49 50 43 37 40 29 34 31 26 35 28 20 26 28 25 31 27 32 32 31 33 35 43 64 61 62
51 50 44 44 47 51 58 59 52 50 50 53 48 50 50 60 55 49 52 52 45 39 35 25 32 28 34 41 43 42 37 35 30 25 27 31 40 35 41 42 55 60 53
52 54 61 59 56 64 65 47 40 52 47 53 57 58 65 60 47 41 39 62 63 55 46 36 40 48 53 58 56 58 47 40 34 26 26 28 32 39 39 45 54 64 63
64 55 58 75 73 65 46 25 34 53 41 57 60 65 59 54 50 51 51 52 57 55 53 51 44 38 35 41 49 39 42 41 28 28 31 37 44 51 53 58 62 57 61
53 53 61 67 83 80 56 40 34 38 50 60 61 59 58 50 51 50 47 43 51 53 53 53 46 39 47 44 34 38 35 42 44 49 52 57 60 64 65 64 54 54 56
52 56 59 59 64 64 58 50 47 50 66 58 55 57 57 48 47 40 37 35 40 53 62 59 53 42 39 37 40 34 32 32 38 53 61 54 50 52 47 48 52 54 53
55 56 53 39 40 38 47 44 48 51 46 47 49 50 48 50 47 43 42 42 48 56 67 56 59 55 42 44 45 54 62 68 66 51 41 49 42 46 51 55 53 54 47
44 44 27 50 54 38 36 37 38 37 39 41 44 50 53 55 54 50 50 54 58 61 73 76 72 63 65 58 51 53 52 44 45 54 53 53 49 52 60 61 63 57 52
7 4 20 19 14 17 21 31 34 36 44 46 49 55 59 60 66 62 62 64 66 67 74 85 82 74 65 48 44 58 68 66 60 45 49 34 47 57 56 50 53 59 53
3 3 5 3 1 10 19 29 38 46 50 56 62 65 68 69 73 75 74 76 75 75 77 86 90 85 74 79 79 72 57 44 48 43 35 46 48 42 48 52 52 53 59
9 15 18 22 28 36 37 38 39 42 44 48 53 55 61 64 67 73 78 83 84 82 86 93 92 91 90 83 66 54 53 59 54 57 67 76 79 74 74 70 58 54 51
21 24 26 27 31 36 41 48 57 63 66 72 76 74 72 69 63 59 57 63 63 70 79 85 87 83 79 71 64 62 65 63 73 85 78 76 72 74 64 58 63 55 49
32 35 38 42 46 48 52 56 61 68 75 83 89 93 95 94 95 95 93 91 80 69 70 69 83 83 81 77 70 67 76 86 87 85 72 63 65 72 67 55 56 51 49
47 50 53 56 58 60 60 63 66 68 72 76 81 86 88 89 89 89 92 95 96 96 89 84 80 77 69 66 69 73 78 77 75 72 63 71 75 71 59 59 51 46 46
56 59 61 61 60 58 54 51 58 66 71 74 77 81 82 82 82 83 85 88 89 86 84 84 85 95 89 78 77 77 65 79 73 65 65 66 77 71 57 53 48 45 47
60 58 54 54 55 59 62 66 72 78 81 84 83 81 77 79 78 73 68 72 78 80 79 84 85 88 88 79 76 62 62 64 65 67 66 61 78 69 59 55 48 46 45
52 58 65 69 73 70 59 57 56 59 64 64 61 61 59 59 57 57 57 61 59 52 54 57 63 65 59 66 67 71 80 75 65 66 70 53 71 50 56 51 49 46 37
Wind_Direction_850mb
228 217 231 234 240 252 246 247 244 239 227 224 223 242 250 248 245 239 244 248 254 263 273 281 286 294 286 277 275 273 274 272 268 268 269 264 265 262 263 264 265 262 259
214 211 234 240 241 252 264 252 248 243 238 240 245 253 242 243 253 257 253 252 256 259 272 280 288 295 298 296 286 281 276 272 271 269 269 270 267 265 263 263 266 265 261
215 202 225 236 245 253 256 254 255 250 250 250 256 259 256 260 273 276 284 277 275 277 286 281 287 294 292 293 305 305 295 284 281 277 272 272 272 269 267 266 265 266 263
230 215 214 235 236 239 247 254 236 236 233 241 260 266 263 266 271 278 281 282 280 287 295 296 293 285 290 292 297 298 296 295 288 282 276 274 273 271 269 265 266 265 264
217 218 216 215 218 228 243 246 259 261 258 257 262 267 269 270 264 272 279 277 280 278 282 287 290 291 292 296 299 294 291 296 293 286 278 274 274 276 273 270 265 265 262
219 219 219 215 217 226 229 225 229 246 239 246 243 238 248 258 265 267 273 286 285 287 285 294 296 289 294 290 277 283 278 281 287 290 280 275 273 271 274 276 269 265 265
219 224 232 224 227 225 218 247 221 239 249 283 274 255 267 271 300 278 272 281 277 270 268 278 297 296 305 301 302 286 282 284 288 288 278 280 278 269 273 273 269 264 265
259 244 264 223 235 246 249 228 218 235 244 252 268 280 307 278 319 273 270 254 295 280 281 271 281 280 284 293 303 296 293 290 288 280 276 286 276 273 270 270 268 267 266
279 265 265 259 246 225 232 220 205 228 261 244 255 252 283 245 276 280 276 262 284 289 287 284 281 295 296 292 289 294 297 284 295 281 292 300 292 285 277 269 268 263 266
236 248 258 253 248 239 223 226 230 236 236 230 240 251 236 246 263 274 270 273 291 305 308 307 294 296 295 294 299 306 318 298 308 299 293 276 283 289 302 280 276 268 265
238 248 254 235 230 217 227 237 239 233 239 251 240 237 229 234 246 253 269 279 285 296 290 300 284 282 277 289 300 300 303 310 307 296 286 293 295 295 297 291 276 271 263
252 252 246 238 234 231 235 237 233 239 238 246 251 244 236 228 235 233 247 273 284 291 287 277 273 281 285 289 296 304 294 292 304 304 295 286 286 290 288 295 288 267 259
250 258 261 250 235 227 222 257 261 231 237 234 235 235 239 243 249 256 262 267 276 285 290 289 293 297 283 293 303 312 307 299 294 297 297 294 291 290 292 289 296 282 272
260 264 264 261 242 232 218 202 193 199 228 230 234 241 248 252 251 256 265 276 285 289 290 291 289 281 289 299 303 310 301 293 298 290 296 298 293 293 291 289 286 285 276
254 254 286 265 238 225 228 217 226 225 219 228 241 244 249 255 263 267 269 276 280 284 286 293 297 296 301 290 289 287 279 291 296 296 299 292 298 291 289 286 285 289 282
256 261 280 292 274 227 222 227 223 218 233 242 246 253 262 271 272 268 274 280 271 275 281 286 287 293 282 271 277 278 283 286 295 291 295 305 295 296 294 287 282 284 282
287 289 273 231 223 233 219 222 234 237 238 249 260 263 268 270 276 284 286 284 283 277 279 285 287 289 283 282 286 296 294 289 290 296 301 297 293 297 300 287 277 283 269
88 214 231 215 222 218 231 241 250 254 253 260 269 272 276 275 273 277 276 278 279 279 278 282 286 285 290 282 279 293 297 291 284 287 296 293 290 286 286 290 281 274 271
25 207 170 172 246 259 258 264 269 267 268 266 268 267 270 268 271 272 273 272 274 274 276 276 278 279 281 279 285 291 294 281 280 291 294 287 284 289 286 288 284 278 270
268 269 275 266 257 252 253 256 264 269 270 267 267 265 268 271 275 275 273 274 275 275 277 272 272 275 275 278 282 275 272 268 281 296 291 289 289 287 289 288 289 278 278
297 293 292 283 273 268 267 267 265 264 265 264 265 269 270 269 265 262 267 269 273 274 272 273 273 274 272 272 269 277 264 274 283 291 296 301 290 281 278 277 278 271 274
299 298 296 294 292 291 288 282 277 273 271 274 277 277 277 278 277 276 274 274 275 275 274 274 275 274 272 271 270 267 268 276 280 285 293 295 300 293 272 276 274 271 265
301 299 299 299 299 297 295 293 293 290 287 286 286 286 286 284 285 285 284 281 277 271 266 273 273 270 273 270 272 273 272 272 273 283 287 288 303 296 276 271 271 276 254
300 301 301 301 299 298 296 293 289 287 287 287 287 286 285 285 284 284 285 282 280 278 276 273 273 273 273 275 273 276 279 273 265 274 279 287 301 294 282 270 272 268 251
299 299 301 303 302 299 297 294 290 288 288 288 288 290 292 289 287 287 283 279 277 275 275 275 276 276 272 271 263 274 260 266 262 269 273 284 298 292 287 277 278 254 248
297 297 297 298 298 299 299 301 299 296 295 301 301 298 295 294 293 288 280 283 287 285 286 284 283 282 288 274 263 256 255 253 258 270 267 277 295 296 294 293 284 254 250